This is the latest recevied weather packets stored in our database for station/object N0OQA. If no packets are shown the sender has not sent any weather packets the latest 10 day(s).
| Time | Temp. | Humidity | Pressure | Rain* | Wind** | Luminosity | Snow |
|---|---|---|---|---|---|---|---|
| 1788299505 | 27.78° C | 45% | 1015.6 hPa | 0 mm | - | - | - |
| 1788298904 | 28.33° C | 44% | 1015.7 hPa | 0 mm | - | - | - |
| 1788298304 | 28.33° C | 44% | 1015.6 hPa | 0 mm | - | - | - |
| 1788298003 | 28.89° C | 44% | 1015.5 hPa | 0 mm | - | - | - |
| 1788297703 | 28.89° C | 45% | 1015.5 hPa | 0 mm | - | - | - |
| 1788297403 | 28.89° C | 43% | 1015.5 hPa | 0 mm | - | - | - |
| 1788297102 | 28.89° C | 40% | 1015.5 hPa | 0 mm | - | - | - |
| 1788296802 | 30° C | 44% | 1015.5 hPa | 0 mm | - | - | - |
| 1788296202 | 29.44° C | 35% | 1015.5 hPa | 0 mm | - | - | - |
| 1788295901 | 30° C | 33% | 1015.5 hPa | 0 mm | - | - | - |
| 1788295601 | 30° C | 33% | 1015.6 hPa | 0 mm | - | - | - |
| 1788295301 | 30.56° C | 32% | 1015.8 hPa | 0 mm | - | - | - |
| 1788295000 | 30.56° C | 33% | 1015.9 hPa | 0 mm | - | - | - |
| 1788294099 | 31.11° C | 32% | 1015.9 hPa | 0 mm | - | - | - |
| 1788293798 | 31.11° C | 33% | 1015.9 hPa | 0 mm | - | - | - |
| 1788293498 | 31.11° C | 32% | 1015.5 hPa | 0 mm | - | - | - |
| 1788293197 | 30.56° C | 33% | 1015.9 hPa | 0 mm | - | - | - |
| 1788292297 | 30° C | 38% | 1016.1 hPa | 0 mm | - | - | - |
| 1788291995 | 30° C | 34% | 1016.1 hPa | 0 mm | - | - | - |
| 1788291394 | 30° C | 38% | 1016.4 hPa | 0 mm | - | - | - |
| 1788291093 | 29.44° C | 37% | 1016.3 hPa | 0 mm | - | - | - |
| 1788290493 | 30.56° C | 33% | 1016.3 hPa | 0 mm | - | - | - |
| 1788288691 | 30.56° C | 39% | 1016.4 hPa | 0 mm | - | - | - |
| 1788288391 | 30.56° C | 40% | 1016.5 hPa | 0 mm | - | - | - |
| 1788287790 | 30° C | 40% | 1016.7 hPa | 0 mm | - | - | - |
* Rain since midnight (hover to see other rain measurements)
** Current wind speed in m/s (hover to see current wind gust speed)